Location: Barrio Las Umbrías
(40.4173°N, 4.8685°W)
Time: 14:08:47
(UTC+00:00)

Cosmos 1943 Rocket - Pass Details

Date: 17 August 2022
Orbit: 813 x 842 km, 71.0° (Epoch: 27 September)

Event Time Altitude Azimuth Distance (km) Brightness Sun altitude
Exits shadow 23:49:01 36° 1° (N) 1,297 3.5 -35.8°
Drops below altitude 10° 23:52:24 10° 17° (NNE) 2,449 5.2 -35.9°
Sets 23:54:52 0° 21° (NNE) 3,382 6.1 -36.0°
